This is the latest recevied weather packets stored in our database for station/object TF3VP-10. If no packets are shown the sender has not sent any weather packets the latest 10 day(s).
| Time | Temp. | Humidity | Pressure | Rain* | Wind** | Luminosity | Snow |
|---|---|---|---|---|---|---|---|
| 1777982747 | 3.89° C | 39% | 1037.9 hPa | - | - | - | - |
| 1777981849 | 3.89° C | 39% | 1038 hPa | - | - | - | - |
| 1777980947 | 3.33° C | 39% | 1037.8 hPa | - | - | - | - |
| 1777980047 | 3.33° C | 40% | 1038.2 hPa | - | - | - | - |
| 1777979147 | 2.78° C | 44% | 1037.9 hPa | - | - | - | - |
| 1777978248 | 2.78° C | 48% | 1038.1 hPa | - | - | - | - |
| 1777977348 | 2.22° C | 50% | 1038.2 hPa | - | - | - | - |
| 1777976447 | 2.22° C | 52% | 1038.1 hPa | - | - | - | - |
| 1777975548 | 2.22° C | 52% | 1038.1 hPa | - | - | - | - |
| 1777974648 | 2.22° C | 53% | 1038 hPa | - | - | - | - |
| 1777973747 | 1.67° C | 54% | 1038.2 hPa | - | - | - | - |
| 1777972849 | 1.67° C | 55% | 1038.4 hPa | - | - | - | - |
| 1777971948 | 1.11° C | 57% | 1038.5 hPa | - | - | - | - |
| 1777971048 | 1.11° C | 57% | 1038.3 hPa | - | - | - | - |
| 1777970147 | 1.11° C | 56% | 1038 hPa | - | - | - | - |
| 1777969247 | 1.11° C | 54% | 1038 hPa | - | - | - | - |
| 1777968348 | 1.11° C | 54% | 1038 hPa | - | - | - | - |
| 1777967447 | 1.11° C | 55% | 1038 hPa | - | - | - | - |
| 1777966547 | 1.11° C | 55% | 1038 hPa | - | - | - | - |
| 1777965647 | 0.56° C | 53% | 1038.3 hPa | - | - | - | - |
| 1777964748 | 0.56° C | 54% | 1038.5 hPa | - | - | - | - |
| 1777963847 | 0° C | 56% | 1038.6 hPa | - | - | - | - |
| 1777962947 | 0° C | 56% | 1038.6 hPa | - | - | - | - |
| 1777962047 | 0° C | 58% | 1038.7 hPa | - | - | - | - |
| 1777961147 | 0° C | 57% | 1038.6 hPa | - | - | - | - |
* Rain since midnight (hover to see other rain measurements)
** Current wind speed in m/s (hover to see current wind gust speed)